Location: Beuerbach
(48.1459°N, 10.9174°E)
Time: 02:10:37
(UTC+00:00)

Cosmos 676 Rocket - Pass Details

Date: 23 May 2024
Orbit: 752 x 782 km, 74.0° (Epoch: 13 June)

Event Time Altitude Azimuth Distance (km) Brightness Sun altitude
Exits shadow 00:42:50 34° 211° (SSW) 1,277 4.6 -18.3°
Maximum altitude 00:45:14 79° 293° (WNW) 801 4.0 -18.2°
Drops below altitude 10° 00:50:36 10° 21° (NNE) 2,348 7.8 -17.8°
Sets 00:53:00 0° 23° (NNE) 3,280 9.0 -17.7°
